Preview of NWS' New Version of Forecast
This preview is not operational and should not be used for support decisions.

Regional Weather Roundup (RWR)

Issued by National Weather Service (NWS)

                            
000
ASUS45 KCYS 191110
RWRWY 

WYOMING REGIONAL WEATHER ROUNDUP
NATIONAL WEATHER SERVICE CHEYENNE WY
500 AM MDT SUN MAY 19 2019

NOTE:  "FAIR" INDICATES FEW OR NO CLOUDS BELOW 12,000 FEET
WITH NO SIGNIFICANT WEATHER AND/OR OBSTRUCTIONS TO VISIBILITY.

WYZ001-191200-
YELLOWSTONE NATIONAL PARK
  
CITY           SKY/WX    TMP DP  RH WIND       PRES   REMARKS
LK YELLOWSTONE NOT AVBL                                               
W YELLOWSTONE  NOT AVBL                                               

$$
WYZ002>013-054>058-071-098>099-191200-
NORTHERN WYOMING
  
CITY           SKY/WX    TMP DP  RH WIND       PRES   REMARKS
JACKSON        FAIR      29  27  92 CALM      29.87F                  
CODY           CLOUDY    30  28  92 NE7       30.01S WCI  23          
GREYBULL       CLOUDY    36  30  79 N7        29.99F WCI  30          
WORLAND        CLOUDY    37  32  82 N5        30.00S WCI  33          
SHERIDAN       CLOUDY    34  30  85 CALM      30.06S                  
BUFFALO        CLOUDY    31  29  92 N6        30.01F WCI  25          
GILLETTE       CLOUDY    31  30  96 N8        30.03S WCI  23          
HULETT         CLOUDY    32  32 100 MISG      30.03                   
NEWCASTLE      CLOUDY    32  27  80 NW9       30.00  WCI  24          

$$
WYZ014>020-022>026-101>103-191200-
CENTRAL WYOMING
  
CITY           SKY/WX    TMP DP  RH WIND       PRES   REMARKS
BIG PINEY      MOCLDY    30  27  88 S6        29.92S WCI  24          
PINEDALE       PTSUNNY   30  30 100 CALM      29.91                   
DUBOIS         CLOUDY    30  28  93 SE7       29.93  FOG     WCI  23  
LANDER         CLOUDY    36  33  89 NE5       29.96S WCI  32          
RIVERTON       CLOUDY    34  30  85 NE10      29.97S WCI  26          
CASPER         CLOUDY    29  26  89 NE9       30.01F WCI  20          
DOUGLAS        CLOUDY    31  29  92 NW12      30.03S WCI  22          

$$
WYZ021-027>030-104>119-191200-
SOUTHERN WYOMING
  
CITY           SKY/WX    TMP DP  RH WIND       PRES   REMARKS
EVANSTON       CLOUDY    35  26  69 E10       29.84F WCI  27          
KEMMERER       PTSUNNY   32  28  86 NE6       29.88  WCI  26          
ROCK SPRINGS   CLOUDY    32  29  88 E10       29.91F WCI  24          
DIXON          CLOUDY    32  29  89 NE10G16   29.94R WCI  23          
RAWLINS        CLOUDY    32  27  81 NE6       29.95R WCI  26          
LARAMIE        CLOUDY    32  26  78 N6        29.94F WCI  26          
CHEYENNE       CLOUDY    31  24  75 N15       29.96F WCI  20          
TORRINGTON     CLOUDY    35  28  75 NW12      29.99S WCI  27          
PINE BLUFFS    CLOUDY    32  27  80 N13       30.00S WCI  22          

$$